�N����,����,�~����,�C��,���x,�C��,����,���ϕ���,�ő�u�ԕ���,�ő厞����,���˗�,�I�_���x,�n�����x,�ő啗���N��,DTYPE
"23/10/31","00:10",0.0,13.0,83.4,1017.8,311.4,2.1,3.3,314.4,0.00,10.3,15.6,"00:08:32",1
"23/10/31","00:20",0.0,13.0,83.2,1018.0,320.1,2.0,3.2,326.5,0.00,10.3,15.5,"00:11:00",1
"23/10/31","00:30",0.0,12.9,83.3,1018.0,322.1,1.8,2.6,340.6,0.00,10.2,15.5,"00:24:16",1
"23/10/31","00:40",0.0,12.8,83.8,1018.0,312.8,1.7,2.8,343.0,0.00,10.2,15.5,"00:32:38",1
"23/10/31","00:50",0.0,12.9,84.4,1018.2,325.5,1.8,3.3,330.0,0.00,10.4,15.4,"00:42:00",1
"23/10/31","01:00",0.0,13.1,84.5,1018.0,323.8,1.8,3.2,328.0,0.00,10.6,15.3,"00:53:02",1
"23/10/31","01:10",0.0,13.1,84.4,1018.0,320.2,2.1,3.7,317.8,0.00,10.6,15.2,"01:08:32",1
"23/10/31","01:20",0.0,13.2,84.2,1018.0,320.3,2.1,4.1,334.7,0.00,10.6,15.5,"01:16:56",1
"23/10/31","01:30",0.0,13.1,84.2,1018.0,312.3,1.8,2.8,334.9,0.00,10.5,15.6,"01:28:48",1
"23/10/31","01:40",0.0,13.1,84.2,1018.2,318.7,1.7,2.7,336.6,0.00,10.5,15.3,"01:31:42",1
"23/10/31","01:50",0.0,13.0,84.3,1018.2,313.7,1.6,2.6,327.8,0.00,10.5,15.4,"01:43:04",1
"23/10/31","02:00",0.0,13.1,84.3,1017.8,307.7,1.8,2.7,306.2,0.00,10.6,15.4,"01:55:10",1
"23/10/31","02:10",0.0,13.1,84.2,1018.0,321.4,1.6,3.3,312.8,0.00,10.5,15.3,"02:01:24",1
"23/10/31","02:20",0.0,13.1,84.3,1017.5,320.2,1.7,2.7,302.7,0.00,10.6,15.4,"02:15:46",1
"23/10/31","02:30",0.0,13.1,84.4,1017.8,323.1,1.8,3.9,312.5,0.00,10.6,15.3,"02:26:08",1
"23/10/31","02:40",0.0,13.1,84.4,1017.5,319.6,1.8,3.4,307.7,0.00,10.6,15.1,"02:38:32",1
"23/10/31","02:50",0.0,13.0,84.5,1017.5,321.7,2.0,3.4,321.7,0.00,10.5,15.5,"02:42:50",1
"23/10/31","03:00",0.0,12.9,84.6,1017.3,319.2,1.7,2.8,311.2,0.00,10.4,15.3,"02:59:04",1
"23/10/31","03:10",0.0,12.8,84.8,1017.5,328.2,2.5,4.5,340.7,0.00,10.3,15.5,"03:04:36",1
"23/10/31","03:20",0.0,12.6,85.2,1017.5,326.3,2.3,3.4,322.7,0.00,10.2,15.5,"03:17:24",1
"23/10/31","03:30",0.0,12.5,85.8,1017.8,318.5,2.6,3.9,319.3,0.00,10.2,15.3,"03:29:22",1
"23/10/31","03:40",0.0,12.4,86.2,1018.0,323.4,2.6,3.9,328.5,0.00,10.2,15.4,"03:30:24",1
"23/10/31","03:50",0.0,12.3,86.5,1017.5,316.4,2.2,3.4,317.5,0.00,10.2,15.4,"03:46:46",1
"23/10/31","04:00",0.0,12.0,86.9,1017.3,308.9,2.2,3.1,322.9,0.00,9.9,15.3,"03:57:10",1
"23/10/31","04:10",0.0,11.8,87.4,1017.3,307.0,2.3,3.7,328.7,0.00,9.8,15.3,"04:04:36",1
"23/10/31","04:20",0.0,11.7,88.1,1017.1,313.4,2.5,3.9,313.0,0.00,9.8,15.4,"04:19:02",1
"23/10/31","04:30",0.0,11.7,88.4,1017.5,311.8,2.5,3.5,332.1,0.00,9.9,15.2,"04:22:36",1
"23/10/31","04:40",0.0,11.6,88.6,1017.5,315.8,2.5,3.1,327.4,0.00,9.8,15.2,"04:32:40",1
"23/10/31","04:50",0.0,11.4,89.0,1017.1,317.8,2.3,2.9,323.5,0.00,9.7,15.1,"04:42:42",1
"23/10/31","05:00",0.0,11.3,89.3,1017.3,307.2,2.2,3.7,316.3,0.00,9.6,15.2,"04:56:26",1
"23/10/31","05:10",0.0,11.3,89.6,1017.3,323.0,2.6,4.3,328.1,0.00,9.7,15.1,"05:01:28",1
"23/10/31","05:20",0.0,11.3,89.9,1017.3,319.2,2.8,4.0,310.4,0.00,9.7,15.1,"05:14:56",1
"23/10/31","05:30",0.0,11.3,90.1,1016.8,313.1,3.0,4.8,324.7,0.00,9.8,15.1,"05:29:44",1
"23/10/31","05:40",0.0,11.3,90.2,1017.3,321.0,3.1,4.8,326.9,0.00,9.8,15.1,"05:32:16",1
"23/10/31","05:50",0.0,11.1,90.5,1017.3,301.6,2.3,3.6,325.1,0.00,9.6,15.1,"05:41:14",1
"23/10/31","06:00",0.0,11.0,90.7,1017.3,314.1,2.7,3.6,315.2,0.00,9.6,15.0,"05:55:10",1
"23/10/31","06:10",0.0,10.8,90.8,1017.5,307.6,2.1,3.6,321.0,0.00,9.4,14.9,"06:03:04",1
"23/10/31","06:20",0.0,10.4,91.1,1017.5,287.5,1.6,2.9,320.5,0.00,9.1,15.0,"06:18:56",1
"23/10/31","06:30",0.0,10.1,91.3,1017.5,299.4,1.5,2.0,303.6,0.00,8.8,15.0,"06:21:28",1
"23/10/31","06:40",0.0,10.1,91.6,1018.0,302.1,1.7,2.8,303.2,0.00,8.8,14.9,"06:30:40",1
"23/10/31","06:50",0.0,10.3,91.8,1017.8,291.5,1.7,2.2,296.8,0.00,9.1,14.9,"06:48:08",1
"23/10/31","07:00",0.0,10.8,92.2,1018.2,296.4,1.8,3.2,302.5,0.00,9.6,15.0,"06:59:42",1
"23/10/31","07:10",0.0,11.4,92.0,1018.0,289.7,1.6,2.9,319.4,0.01,10.2,15.0,"07:00:32",1
"23/10/31","07:20",0.0,11.8,91.7,1018.2,303.4,1.6,3.1,318.1,0.02,10.5,14.8,"07:12:00",1
"23/10/31","07:30",0.0,12.1,91.1,1018.5,313.7,2.0,3.6,337.3,0.04,10.7,14.7,"07:24:34",1
"23/10/31","07:40",0.0,12.7,90.5,1018.7,306.4,1.2,2.1,328.7,0.05,11.2,15.0,"07:33:34",1
"23/10/31","07:50",0.0,13.4,89.0,1018.7,357.2,0.7,1.3,341.8,0.07,11.7,14.7,"07:41:20",1
"23/10/31","08:00",0.0,14.2,87.2,1018.7,330.0,0.7,1.9,340.1,0.09,12.1,14.7,"07:58:16",1
"23/10/31","08:10",0.0,14.5,84.6,1019.2,290.3,1.2,2.4,307.0,0.12,12.0,14.7,"08:06:24",1
"23/10/31","08:20",0.0,14.9,82.2,1019.2,314.9,1.2,2.6,321.4,0.14,11.9,14.9,"08:18:56",1
"23/10/31","08:30",0.0,15.3,79.8,1019.2,317.4,1.5,4.2,345.9,0.16,11.9,14.8,"08:27:52",1
"23/10/31","08:40",0.0,15.6,78.2,1019.0,306.4,1.3,2.7,344.4,0.18,11.9,14.9,"08:31:12",1
"23/10/31","08:50",0.0,15.9,76.8,1018.5,268.6,1.6,3.2,239.1,0.20,11.9,15.0,"08:48:56",1
"23/10/31","09:00",0.0,16.2,76.1,1018.2,266.6,1.3,2.5,257.6,0.22,12.0,15.1,"08:54:40",1
"23/10/31","09:10",0.0,16.7,74.4,1018.7,297.7,1.5,2.4,243.5,0.24,12.2,14.8,"09:07:04",1
"23/10/31","09:20",0.0,17.0,72.7,1018.5,262.6,1.6,3.1,234.3,0.26,12.1,15.0,"09:12:48",1
"23/10/31","09:30",0.0,17.3,70.8,1018.0,242.1,1.1,2.7,241.7,0.28,12.0,15.0,"09:24:24",1
"23/10/31","09:40",0.0,18.5,69.1,1018.0,209.1,0.6,2.0,259.5,0.30,12.8,15.3,"09:39:12",1
"23/10/31","09:50",0.0,18.8,66.7,1017.8,240.5,0.8,1.9,206.8,0.31,12.5,15.1,"09:47:28",1
"23/10/31","10:00",0.0,19.1,65.4,1018.0,228.8,1.0,2.4,235.4,0.33,12.5,15.4,"09:57:52",1
"23/10/31","10:10",0.0,19.3,64.6,1017.5,242.5,1.1,2.9,241.5,0.34,12.5,15.4,"10:02:24",1
"23/10/31","10:20",0.0,19.5,62.5,1017.3,207.4,1.2,2.8,206.8,0.36,12.2,15.5,"10:13:36",1
"23/10/31","10:30",0.0,19.8,61.8,1017.1,217.9,1.5,4.4,231.7,0.37,12.3,15.5,"10:25:36",1
"23/10/31","10:40",0.0,20.4,59.9,1017.1,194.0,1.2,2.4,118.3,0.38,12.4,15.6,"10:37:44",1
"23/10/31","10:50",0.0,21.2,58.2,1017.1,195.8,0.8,2.4,155.5,0.39,12.7,15.7,"10:40:02",1
"23/10/31","11:00",0.0,20.9,55.9,1016.6,211.1,1.6,2.8,169.2,0.40,11.8,15.9,"10:51:04",1
"23/10/31","11:10",0.0,21.3,54.6,1016.1,199.2,1.2,2.9,235.9,0.41,11.8,15.7,"11:06:36",1
"23/10/31","11:20",0.0,21.9,53.6,1016.1,193.6,1.0,2.5,158.6,0.42,12.1,16.0,"11:17:12",1
"23/10/31","11:30",0.0,21.8,49.6,1016.1,84.8,1.0,2.7,52.4,0.42,10.8,15.9,"11:27:20",1
"23/10/31","11:40",0.0,21.7,50.2,1015.6,237.7,1.3,3.6,230.4,0.41,10.9,16.1,"11:34:56",1
"23/10/31","11:50",0.0,22.3,51.1,1015.4,189.6,0.7,1.9,236.6,0.41,11.8,16.1,"11:46:32",1
"23/10/31","12:00",0.0,22.5,51.5,1015.4,299.5,1.0,3.2,331.8,0.41,12.1,16.5,"11:55:12",1
"23/10/31","12:10",0.0,22.4,49.7,1015.4,307.3,1.2,2.8,338.1,0.40,11.4,16.5,"12:01:44",1
"23/10/31","12:20",0.0,21.8,50.2,1014.9,318.9,1.8,3.5,332.5,0.40,11.0,16.6,"12:18:56",1
"23/10/31","12:30",0.0,21.6,49.7,1014.9,320.2,1.7,3.9,348.0,0.30,10.7,16.6,"12:22:24",1
"23/10/31","12:40",0.0,20.5,52.6,1015.2,333.8,1.5,2.8,341.3,0.07,10.5,16.7,"12:31:20",1
"23/10/31","12:50",0.0,20.2,53.5,1014.9,323.6,1.2,2.5,324.7,0.05,10.5,16.5,"12:42:32",1
"23/10/31","13:00",0.0,20.5,52.7,1015.2,309.5,1.5,2.5,334.1,0.15,10.6,16.7,"12:50:56",1
"23/10/31","13:10",0.0,20.0,52.6,1014.9,317.0,1.5,2.9,339.5,0.03,10.1,16.7,"13:07:44",1
"23/10/31","13:20",0.0,20.1,53.3,1015.2,309.5,1.0,2.4,340.3,0.05,10.4,16.7,"13:11:04",1
"23/10/31","13:30",0.0,20.9,53.6,1014.9,315.5,1.2,2.6,341.5,0.22,11.2,16.9,"13:28:24",1
"23/10/31","13:40",0.0,22.5,51.3,1014.7,312.4,1.1,2.5,315.2,0.34,12.0,16.8,"13:33:52",1
"23/10/31","13:50",0.0,23.4,47.3,1014.7,81.3,0.6,1.4,128.9,0.32,11.6,16.9,"13:42:00",1
"23/10/31","14:00",0.0,23.5,45.6,1014.5,3.7,1.0,2.7,333.5,0.30,11.1,16.9,"13:58:40",1
"23/10/31","14:10",0.0,23.8,46.0,1014.2,192.6,0.7,2.1,236.9,0.29,11.5,17.0,"14:01:12",1
"23/10/31","14:20",0.0,23.7,44.8,1014.2,184.1,1.0,2.7,164.2,0.27,11.0,16.9,"14:18:32",1
"23/10/31","14:30",0.0,23.0,45.5,1014.0,205.4,1.5,3.9,223.5,0.24,10.6,17.1,"14:23:52",1
"23/10/31","14:40",0.0,23.0,45.2,1014.0,167.7,1.5,3.5,138.7,0.21,10.5,17.1,"14:38:56",1
"23/10/31","14:50",0.0,22.8,44.6,1014.2,181.4,1.2,2.9,223.2,0.18,10.2,17.0,"14:40:16",1
"23/10/31","15:00",0.0,22.7,44.2,1014.7,238.5,1.6,3.5,243.2,0.16,9.9,17.2,"14:54:32",1
"23/10/31","15:10",0.0,23.2,45.0,1014.2,223.3,0.7,1.7,322.8,0.14,10.7,17.2,"15:00:16",1
"23/10/31","15:20",0.0,22.8,43.7,1014.2,245.1,1.5,3.5,233.6,0.12,9.9,17.2,"15:15:12",1
"23/10/31","15:30",0.0,22.7,45.0,1014.2,245.6,1.1,2.4,241.8,0.10,10.2,17.4,"15:24:16",1
"23/10/31","15:40",0.0,22.4,44.9,1014.7,232.6,1.3,2.5,246.4,0.08,9.9,17.2,"15:39:44",1
"23/10/31","15:50",0.0,22.2,47.1,1014.5,238.3,1.1,2.6,229.4,0.06,10.4,17.3,"15:43:12",1
"23/10/31","16:00",0.0,22.1,47.9,1014.5,231.3,1.0,1.7,225.8,0.04,10.6,17.3,"15:54:32",1
"23/10/31","16:10",0.0,21.7,50.2,1014.7,237.0,1.1,1.8,236.7,0.03,10.9,17.4,"16:01:36",1
"23/10/31","16:20",0.0,21.0,54.3,1014.9,243.4,0.5,1.4,228.5,0.01,11.5,17.3,"16:11:52",1
"23/10/31","16:30",0.0,20.6,55.5,1015.2,299.9,0.7,1.0,317.2,0.00,11.4,17.4,"16:20:24",1
"23/10/31","16:40",0.0,19.7,57.6,1014.7,314.4,1.0,1.4,315.6,0.00,11.1,17.5,"16:39:36",1
"23/10/31","16:50",0.0,18.7,60.3,1015.2,312.9,0.8,1.7,343.4,0.00,10.9,17.4,"16:42:16",1
"23/10/31","17:00",0.0,17.9,63.3,1015.2,314.3,1.1,2.1,335.7,0.00,10.9,17.3,"16:51:52",1
"23/10/31","17:10",0.0,17.2,66.1,1015.2,289.4,1.1,1.6,305.8,0.00,10.9,17.1,"17:02:40",1
"23/10/31","17:20",0.0,16.8,68.0,1015.4,286.3,1.0,1.6,287.0,0.00,10.9,17.2,"17:16:40",1
"23/10/31","17:30",0.0,16.6,69.6,1015.2,296.6,1.3,2.6,328.3,0.00,11.1,17.0,"17:22:56",1
"23/10/31","17:40",0.0,16.3,70.6,1015.2,278.1,1.2,1.8,258.1,0.00,11.0,17.1,"17:30:08",1
"23/10/31","17:50",0.0,16.1,71.4,1015.2,292.8,1.5,2.2,315.4,0.00,11.0,17.1,"17:42:26",1
"23/10/31","18:00",0.0,15.9,72.2,1015.9,289.3,1.3,2.1,321.0,0.00,10.9,17.0,"17:55:20",1
"23/10/31","18:10",0.0,15.8,73.4,1016.1,284.9,1.5,2.6,312.2,0.00,11.1,17.0,"18:09:36",1
"23/10/31","18:20",0.0,15.5,74.3,1016.4,310.0,1.3,2.4,319.3,0.00,11.0,16.8,"18:17:04",1
"23/10/31","18:30",0.0,15.1,75.5,1016.1,329.5,1.1,1.7,348.0,0.00,10.8,16.9,"18:24:48",1
"23/10/31","18:40",0.0,14.5,77.1,1016.4,313.3,1.2,1.9,333.6,0.00,10.6,16.8,"18:39:28",1
"23/10/31","18:50",0.0,14.1,78.4,1016.4,289.6,1.1,1.6,319.3,0.00,10.4,16.8,"18:40:48",1
"23/10/31","19:00",0.0,14.0,79.6,1016.4,284.1,1.2,1.8,269.0,0.00,10.6,16.7,"18:59:52",1
"23/10/31","19:10",0.0,14.0,80.5,1016.4,297.2,1.3,2.2,304.9,0.00,10.7,16.7,"19:02:12",1
"23/10/31","19:20",0.0,13.7,81.0,1016.6,283.6,1.2,1.8,262.2,0.00,10.5,16.5,"19:13:52",1
"23/10/31","19:30",0.0,13.7,81.6,1016.6,295.8,1.5,2.0,315.6,0.00,10.7,16.4,"19:25:32",1
"23/10/31","19:40",0.0,13.4,81.8,1016.8,299.5,1.2,1.7,305.2,0.00,10.4,16.5,"19:35:10",1
"23/10/31","19:50",0.0,13.0,82.3,1016.6,307.3,1.8,2.2,321.4,0.00,10.1,16.4,"19:46:04",1
"23/10/31","20:00",0.0,12.7,83.5,1016.6,301.8,1.6,2.4,315.9,0.00,10.0,16.3,"19:53:02",1
"23/10/31","20:10",0.0,12.4,84.4,1016.8,299.1,1.5,2.2,320.1,0.00,9.9,16.4,"20:09:26",1
"23/10/31","20:20",0.0,12.2,85.1,1017.1,321.4,2.0,2.5,316.9,0.00,9.8,16.1,"20:16:56",1
"23/10/31","20:30",0.0,12.1,86.0,1016.8,300.4,1.8,2.2,310.1,0.00,9.9,16.2,"20:21:30",1
"23/10/31","20:40",0.0,12.2,86.3,1016.8,293.4,1.8,2.7,309.8,0.00,10.0,16.1,"20:39:04",1
"23/10/31","20:50",0.0,12.4,86.2,1016.8,302.5,2.0,2.5,316.9,0.00,10.2,16.1,"20:49:10",1
"23/10/31","21:00",0.0,12.5,85.9,1016.8,291.2,2.0,2.4,264.4,0.00,10.2,16.2,"20:52:48",1
"23/10/31","21:10",0.0,12.5,85.6,1017.3,290.2,1.7,2.7,301.5,0.00,10.2,15.9,"21:08:46",1
"23/10/31","21:20",0.0,12.6,85.3,1016.8,297.2,2.1,2.8,308.4,0.00,10.2,15.9,"21:14:32",1
"23/10/31","21:30",0.0,12.6,84.9,1017.3,290.3,1.7,2.1,275.7,0.00,10.2,15.9,"21:22:54",1
"23/10/31","21:40",0.0,12.9,84.5,1016.8,302.4,2.2,3.1,314.2,0.00,10.4,15.7,"21:32:30",1
"23/10/31","21:50",0.0,13.0,83.7,1017.1,287.0,1.7,2.8,305.4,0.00,10.3,15.8,"21:43:54",1
"23/10/31","22:00",0.0,12.7,83.4,1017.1,302.2,1.6,2.5,309.1,0.00,10.0,15.8,"21:53:36",1
"23/10/31","22:10",0.0,12.8,83.5,1017.3,311.8,2.1,2.9,324.6,0.00,10.1,15.9,"22:03:20",1
"23/10/31","22:20",0.0,12.8,83.4,1017.1,319.5,2.3,4.5,333.9,0.00,10.1,15.7,"22:12:56",1
"23/10/31","22:30",0.0,12.7,83.4,1017.1,321.5,2.1,3.7,323.2,0.00,10.0,15.7,"22:20:10",1
"23/10/31","22:40",0.0,12.6,83.7,1016.8,312.2,2.2,3.6,327.0,0.00,10.0,15.8,"22:35:06",1
"23/10/31","22:50",0.0,12.6,83.8,1016.8,318.6,2.6,3.7,327.5,0.00,10.0,15.6,"22:43:52",1
"23/10/31","23:00",0.0,12.5,84.1,1016.8,307.0,2.5,3.9,335.2,0.00,9.9,15.8,"22:51:02",1
"23/10/31","23:10",0.0,12.5,84.3,1016.8,312.5,2.7,3.5,304.7,0.00,10.0,15.5,"23:05:52",1
"23/10/31","23:20",0.0,12.8,84.1,1016.8,306.7,2.2,3.7,318.1,0.00,10.2,15.6,"23:18:52",1
"23/10/31","23:30",0.0,12.8,83.6,1016.8,307.4,1.7,4.1,304.6,0.00,10.1,15.6,"23:22:02",1
"23/10/31","23:40",0.0,11.8,83.9,1017.1,291.4,1.2,2.0,321.2,0.00,9.2,15.5,"23:39:20",1
"23/10/31","23:50",0.0,11.9,84.6,1017.3,295.2,2.0,3.3,337.9,0.00,9.4,15.4,"23:43:50",1
"23/10/31","24:00",0.0,11.7,85.1,1016.8,291.0,1.8,2.2,305.9,0.00,9.3,15.5,"23:57:10",1
